Other Public Products
Issued by NWS Grand Forks, ND

Home | Current Version | Previous Version | Graphics & Text | Print | Product List | Glossary On
Versions: 1 2 3 4 5 6 7 8 9 10 11 12 13 14 15 16 17 18 19 20 21 22 23 24 25 26 27 28 29 30 31 32 33 34 35 36 37 38 39 40 41 42 43 44 45 46 47 48 49 50
000
FPUS83 KFGF 021931
OPUFGF
PRAIRIE TO PINES WEATHER ROUNDUP
NATIONAL WEATHER SERVICE EASTERN NORTH DAKOTA/GRAND FORKS ND
100 PM CST FRI DEC 02 2016

 **SATELLITE DATA USED TO AUGMENT SKY COVER AT AUTOMATED STATIONS**
 *****  WEATHER ACROSS EASTERN NORTH DAKOTA  *****

CITY           SKY/WX    TMP DP  RH WIND       PRES   REMARKS
GRAND FORKS    CLOUDY    32  21  64 N9        30.25F WCI  24
GRAND FORKS AF CLOUDY    31  22  67 N6        30.25F
GRAND CITY NWS   N/A     32 N/A N/A VRB3        N/A
BUXTON           N/A     45  37  74 NW6         N/A
DEVILS LAKE    CLOUDY    30  20  66 W6        30.23F WCI  24
FARGO          CLOUDY    30  21  69 NW9       30.27S WCI  22
WAHPETON ARPT  CLOUDY    28  21  74 NW7       30.27F WCI  21
$$

 *****  WEATHER ACROSS CENTRAL AND WESTERN NORTH DAKOTA  *****

CITY           SKY/WX    TMP DP  RH WIND       PRES   REMARKS
JAMESTOWN      CLOUDY    27  20  75 NW5       30.24S WCI  22
BISMARCK       CLOUDY    26  18  71 SE5       30.25F WCI  20
MINOT          CLOUDY    29  24  82 S6        30.19F WCI  23
MINOT AFB      CLOUDY    27  24  86 S6        30.19R WCI  21
GARRISON         N/A     27  23  85 S10       30.20S WCI  17
WILLISTON      CLOUDY    30  24  78 SW7       30.17F WCI  23
DICKINSON      CLOUDY    25  22  88 W9        30.15S WCI  15
HETTINGER      CLOUDY    28  24  85 SW6       30.18S WCI  22
$$

 *****  OTHER OBSERVATIONS NORTHEAST NORTH DAKOTA  *****

CITY           SKY/WX    TMP DP  RH WIND       PRES   REMARKS
WALHALLA         N/A     28  28 100 CALM      30.24F
LANGDON        CLOUDY    30  23  74 W10       30.21S WCI  21
CAVALIER         N/A     30  25  80 N3        30.25S
GRAFTON        CLOUDY    32  27  80 NW5       30.27S
CANDO          CLOUDY    28  25  86 W6        30.25S WCI  22
FORT TOTTEN      N/A     30  20  65 NW3       29.95S
ROLLA          CLOUDY    27  23  86 W9        30.20F WCI  17
RUGBY            N/A     27  21  80 SW13      30.22S WCI  16
 ***** THE ABOVE OBSERVATIONS ARE NON NWS ARE NOT QUALITY
        CONTROLLED AND MAY MIS-REPORT RAIN FOR SNOW...
$$

 *****  OTHER OBSERVATIONS SOUTHEAST NORTH DAKOTA *****

CITY           SKY/WX    TMP DP  RH WIND       PRES   REMARKS
COOPERSTOWN    CLOUDY    28  21  74 NW7G13    30.24S WCI  21
VALLEY CITY    CLOUDY    27  23  86 N7        30.27S WCI  19
OAKES          NOT AVBL
GWINNER        CLOUDY    30  23  74 NW5       30.27S
SHEYENNE NWR     N/A     28  20  72 CALM      29.95S
BUFFALO          N/A     28  17  63 CALM        N/A
WYNDMERE         N/A     28  23  80 N7          N/A  WCI  21
 ***** THE ABOVE OBSERVATIONS ARE NON NWS ARE NOT QUALITY
       CONTROLLED AND MAY MIS-REPORT RAIN FOR SNOW...
$$

  *****  WEATHER ACROSS NORTHERN MINNESOTA  *****

CITY           SKY/WX    TMP DP  RH WIND       PRES   REMARKS
FLAG ISLAND    CLOUDY    21  19  93 NW6       30.22R WCI  14
WARROAD        CLOUDY    25  21  86 SW3       30.23S
ROSEAU         CLOUDY    27  21  80 W5        30.23S WCI  21
HALLOCK        CLOUDY    30  25  80 NW3       30.25S
THF RVR FALLS  CLOUDY    27  22  81 NW10      30.25R WCI  17
HALSTAD          N/A     30  21  70 N5          N/A  WCI  25
FOSSTON        CLOUDY    25  19  80 NW5       30.23F WCI  19
BAUDETTE       CLOUDY    24  20  84 W5        30.21S WCI  18
WASKISH        CLOUDY    25  21  86 NW3       30.22S
CROOKSTON      CLOUDY    30  21  69 NW12G18   30.26S WCI  21
$$
  *****  WEATHER ACROSS CENTRAL AND WEST MINNESOTA  *****

CITY           SKY/WX    TMP DP  RH WIND       PRES   REMARKS
BEMIDJI        CLOUDY    24  20  86 N7        30.21S WCI  16
PARK RAPIDS    CLOUDY    26  19  74 NW8       30.21S WCI  18
WADENA         CLOUDY    25  21  86 W9        30.22S WCI  15
DETROIT LAKES  CLOUDY    27  23  86 NW6       30.24S WCI  20
MOORHEAD       CLOUDY    28  19  69 NW7       30.27S WCI  21
FERGUS FALLS   CLOUDY    27  19  74 NW7       30.29S WCI  19
ELBOW LAKE     CLOUDY    27  21  79 W10       30.26R WCI  17
MORRIS MN      CLOUDY    28  21  74 W9        30.25S WCI  20
STAPLES        CLOUDY    25  21  86 NW6       30.22S WCI  18
WHEATON        CLOUDY   N/A N/A N/A W7        30.29S
$$
  *****  WEATHER ELSEWHERE ACROSS MINNESOTA  *****

CITY           SKY/WX    TMP DP  RH WIND       PRES   REMARKS
DULUTH         CLOUDY    27  22  81 NW10      30.17R WCI  17
INTRNTL FALLS  CLOUDY    26  22  84 W8        30.19S WCI  18
ELY            CLOUDY    25  21  86 W3        30.16S
CLOQUET        CLOUDY    28  21  74 W3        30.18S
BRAINERD       CLOUDY    26  21  81 NW8       30.22S WCI  18
HIBBING        CLOUDY    26  23  88 NW8       30.18S WCI  18
ALEXANDRIA     CLOUDY    27  21  78 NW3       30.23F
SAINT CLOUD    CLOUDY    29  23  78 N6        30.23S WCI  23
MINNEAPOLIS    CLOUDY    33  23  66 NW10      30.23S WCI  25
$$

  *****  WEATHER ACROSS SOUTH DAKOTA  *****

CITY           SKY/WX    TMP DP  RH WIND       PRES   REMARKS
SIOUX FALLS    CLOUDY    34  27  75 NW8       30.25F
BROOKINGS      CLOUDY    29  22  75 W10       30.23S WCI  20
WATERTOWN      CLOUDY    26  19  74 N7        30.23F WCI  18
HURON          CLOUDY    31  24  75 NE5       30.28S
SISSETON         N/A     28  21  75 N6        30.26S WCI  22
ABERDEEN       CLOUDY    29  20  69 NW7       30.27S WCI  22
MITCHELL       CLOUDY    32  28  85 N8        30.29S WCI  25
PIERRE         CLOUDY    30  27  88 SE6       30.25S WCI  24
MOBRIDGE       CLOUDY    29  23  78 E7        30.23S WCI  22
RAPID CITY     CLOUDY    37  24  59 NW14      30.20R
$$

  *****  SOME WEATHER IN NEARBY STATES *****

CITY           SKY/WX    TMP DP  RH WIND       PRES   REMARKS
GLASGOW MT     CLOUDY    31  25  78 S8        30.13F WCI  23
GREAT FALLS MT SUNNY     32  23  69 SW16      30.08F WCI  21
CHEYENNE WY    FLURRIES  30  18  60 VRB3      30.15F
SCOTTSBLUFF NE SUNNY     39  24  55 W5        30.21F
OMAHA NE       PTSUNNY   40  29  64 CALM      30.30R
DES MOINES IA  CLOUDY    40  31  70 NW3       30.26S
DAVENPORT IA   CLOUDY    40  29  64 NW14      30.23R
CHICAGO IL     CLOUDY    39  27  62 N12       30.17R
EAU CLAIRE WI  CLOUDY    32  23  69 NW5       30.21R
LA CROSSE WI   CLOUDY    35  24  64 NW12      30.23R
$$

  *****  SOME NATIONAL WEATHER *****

CITY           SKY/WX    TMP DP  RH WIND       PRES   REMARKS
LA GUARDIA NY  MOSUNNY   51  30  44 W20G26    29.85F
RALEIGH NC     MOSUNNY   68  28  22 SW13G18   30.09F
ATLANTA GA     MOSUNNY   60  25  26 N15G22    30.21F
NEW ORLEANS LA PTSUNNY   64  47  53 E13       30.18F
OKLAHOMA CITY  PTSUNNY   53  30  41 N6        30.16F
ALBUQUERQUE NM PTSUNNY   48  15  26 E25       29.97F
SALT LAKE CITY MOSUNNY   34  20  56 W6        30.24S
LOS ANGELES CA SUNNY     65  13  13 NE12G21   30.02F
BOISE ID       SUNNY     33  23  66 MISG      30.39F
SEATTLE WA     CLOUDY    45  43  93 SE14      30.23F
$$

*** WEATHER ACROSS MANITOBA...SASKATCHEWAN AND ONTARIO ***
                ***ONTARIO***

CITY           SKY/WX    TMP DP  RH WIND       PRES   REMARKS
GERALDTON      LGT SNOW  25  23  93 NW8G17    30.06R WCI  16
THUNDER BAY    PTSUNNY   32  25  74 W8        30.14R WCI  25
SIOUX LOOKOUT  FLURRIES  23  19  86 N3        30.17R
TORONTO        CLOUDY    39  30  70 W21G33    29.85R
BIG TROUT LK   CLOUDY    21  19  93 N7        30.20R WCI  13
PICKLE LAKE    FLURRIES  19  18  93 NW6       30.15R WCI  11
DRYDEN         CLOUDY    21  19  93 W8        30.17R WCI  12
KENORA         FLURRIES  19  18  93 NW6       30.19S WCI  11
$$
                *** MANITOBA***

CITY           SKY/WX    TMP DP  RH WIND       PRES   REMARKS
BRANDON        FLURRIES  28  25  86 W5        30.20F WCI  23
DAUPHIN        CLOUDY    27  27 100 CALM      30.19F
ISLAND LAKE    FLURRIES  16  14  93 CALM      30.24F
PILOT MOUND      N/A     30  23  74 W3          N/A
THE PAS        CLOUDY    25  21  86 SE8       30.17F WCI  16
THOMPSON       LGT SNOW  18  14  86 S5        30.22S WCI  11
WINNIPEG       CLOUDY    27  21  80 NW3       30.25S
LYNN LAKE      FOG       16  14  93 S5        30.11F VSB 3/4 WCI   9
CHURCHILL      FLURRIES  10   9  92 SW8       30.22F WCI  -1
GILLAM         LGT SNOW  12   9  85 S8        30.25F FOG     WCI   1
$$
                ***SASKATCHEWAN***

CITY           SKY/WX    TMP DP  RH WIND       PRES   REMARKS
ESTEVAN        FLURRIES  28  25  86 S9        30.15F WCI  20
KINDERSLEY     CLOUDY    23  21  93 S9        30.02F WCI  13
LLOYDMINSTER   CLOUDY    23  23 100 S12       29.96F FOG     WCI  12
PRINCE ALBERT  CLOUDY    27  25  93 SE6       30.08F WCI  20
REGINA         FRZ DRZL  27  25  93 SW7       30.11F FOG     WCI  19
YORKTON        CLOUDY    30  27  86 S8        30.13F WCC1F1C2F2C3F3C4F4C5F5C6F6C7F7C8F8C9F9CaFaCbFbCcFcCdFdCe!



USA.gov is the U.S. government's official web portal to all federal, state and local government web resources and services.